| time (UTC) | temp F | wind direction | speed knots | gust knots | rain 1hr in | rain 24hr in | rain mn in | humidity % | barometer mb |
| 20260507143019 | 67 | 146 | 7.8 | 14.8 | 0.00 | 0.00 | 0.00 | 58 | 1016.8 |
| 20260507142025 | 66 | 168 | 7.0 | 14.8 | 0.00 | 0.00 | 0.00 | 61 | 1016.8 |
| 20260507141029 | 65 | 170 | 7.0 | 13.0 | 0.00 | 0.00 | 0.00 | 61 | 1016.7 |
| 20260507140017 | 64 | 151 | 7.8 | 15.6 | 0.00 | 0.00 | 0.00 | 62 | 1016.8 |
| 20260507135024 | 65 | 154 | 6.1 | 12.2 | 0.00 | 0.00 | 0.00 | 61 | 1016.8 |
| 20260507134027 | 66 | 168 | 6.1 | 13.0 | 0.00 | 0.00 | 0.00 | 60 | 1016.9 |
| 20260507133032 | 66 | 155 | 7.0 | 15.6 | 0.00 | 0.00 | 0.00 | 60 | 1016.8 |
| 20260507132020 | 66 | 151 | 7.0 | 13.9 | 0.00 | 0.00 | 0.00 | 61 | 1017.0 |
| 20260507131025 | 66 | 144 | 7.0 | 13.0 | 0.00 | 0.00 | 0.00 | 62 | 1016.9 |
| 20260507130030 | 65 | 146 | 7.0 | 14.8 | 0.00 | 0.00 | 0.00 | 62 | 1016.9 |
| 20260507125018 | 65 | 159 | 7.0 | 13.9 | 0.00 | 0.00 | 0.00 | 62 | 1017.0 |
| 20260507124023 | 65 | 156 | 7.0 | 16.5 | 0.00 | 0.00 | 0.00 | 61 | 1017.0 |
| 20260507123028 | 66 | 161 | 7.8 | 16.5 | 0.00 | 0.00 | 0.00 | 60 | 1017.1 |
| 20260507122017 | 65 | 161 | 7.8 | 14.8 | 0.00 | 0.00 | 0.00 | 61 | 1017.3 |
| 20260507121021 | 65 | 143 | 8.7 | 15.6 | 0.00 | 0.00 | 0.00 | 63 | 1017.4 |
| 20260507120026 | 65 | 162 | 8.7 | 16.5 | 0.00 | 0.00 | 0.00 | 62 | 1017.3 |
| 20260507115033 | 65 | 154 | 8.7 | 16.5 | 0.00 | 0.00 | 0.00 | 62 | 1017.4 |
| 20260507114021 | 65 | 149 | 9.6 | 15.6 | 0.00 | 0.00 | 0.00 | 62 | 1017.4 |
| 20260507113024 | 65 | 149 | 7.8 | 14.8 | 0.00 | 0.00 | 0.00 | 63 | 1017.4 |
| 20260507112029 | 65 | 143 | 8.7 | 18.2 | 0.00 | 0.00 | 0.00 | 62 | 1017.3 |
| 20260507111017 | 65 | 142 | 7.8 | 15.6 | 0.00 | 0.00 | 0.00 | 61 | 1017.3 |
| 20260507110022 | 65 | 164 | 8.7 | 13.9 | 0.00 | 0.00 | 0.00 | 60 | 1017.2 |
| 20260507105027 | 65 | 143 | 7.8 | 14.8 | 0.00 | 0.00 | 0.00 | 60 | 1017.3 |
| 20260507104033 | 65 | 162 | 7.8 | 16.5 | 0.00 | 0.00 | 0.00 | 59 | 1017.3 |
| 20260507103020 | 65 | 164 | 8.7 | 15.6 | 0.00 | 0.00 | 0.00 | 60 | 1017.4 |
| 20260507102025 | 65 | 151 | 8.7 | 15.6 | 0.00 | 0.00 | 0.00 | 61 | 1017.6 |
| 20260507101030 | 65 | 154 | 7.8 | 16.5 | 0.00 | 0.00 | 0.00 | 61 | 1017.3 |
| 20260507100018 | 65 | 156 | 7.0 | 15.6 | 0.00 | 0.00 | 0.00 | 60 | 1017.3 |
| 20260507095024 | 64 | 166 | 7.8 | 14.8 | 0.00 | 0.00 | 0.00 | 62 | 1017.4 |
| 20260507094028 | 65 | 170 | 7.8 | 15.6 | 0.00 | 0.00 | 0.00 | 60 | 1017.4 |
| 20260507093033 | 65 | 142 | 8.7 | 19.1 | 0.00 | 0.00 | 0.00 | 61 | 1017.3 |
| 20260507092021 | 65 | 163 | 7.8 | 13.0 | 0.00 | 0.00 | 0.00 | 60 | 1017.3 |
| 20260507091028 | 65 | 164 | 8.7 | 14.8 | 0.00 | 0.00 | 0.00 | 60 | 1017.3 |
| 20260507090032 | 65 | 151 | 8.7 | 14.8 | 0.00 | 0.00 | 0.00 | 61 | 1017.4 |
| 20260507085019 | 64 | 153 | 7.0 | 11.3 | 0.00 | 0.00 | 0.00 | 63 | 1017.4 |
| 20260507084024 | 64 | 137 | 7.8 | 14.8 | 0.00 | 0.00 | 0.00 | 62 | 1017.4 |
| 20260507083029 | 64 | 167 | 6.1 | 13.0 | 0.00 | 0.00 | 0.00 | 62 | 1017.3 |
| 20260507082016 | 64 | 166 | 6.1 | 13.9 | 0.00 | 0.00 | 0.00 | 62 | 1017.3 |
| 20260507081022 | 64 | 151 | 7.0 | 13.0 | 0.00 | 0.00 | 0.00 | 61 | 1017.3 |
| 20260507080026 | 64 | 164 | 7.0 | 14.8 | 0.00 | 0.00 | 0.00 | 61 | 1017.1 |
| 20260507075031 | 63 | 147 | 7.8 | 13.9 | 0.00 | 0.00 | 0.00 | 63 | 1017.3 |
| 20260507074019 | 62 | 157 | 7.8 | 13.9 | 0.00 | 0.00 | 0.00 | 62 | 1017.4 |
| 20260507073024 | 62 | 162 | 7.0 | 13.9 | 0.00 | 0.00 | 0.00 | 63 | 1017.4 |
| 20260507072029 | 62 | 167 | 7.8 | 13.9 | 0.00 | 0.00 | 0.00 | 65 | 1017.3 |
| 20260507071017 | 61 | 157 | 7.8 | 13.9 | 0.00 | 0.00 | 0.00 | 65 | 1017.5 |
| 20260507070022 | 61 | 136 | 8.7 | 15.6 | 0.00 | 0.00 | 0.00 | 68 | 1017.4 |
| 20260507065027 | 60 | 168 | 7.8 | 18.2 | 0.00 | 0.00 | 0.00 | 69 | 1017.6 |
| 20260507064024 | 60 | 159 | 7.0 | 12.2 | 0.00 | 0.00 | 0.00 | 69 | 1017.6 |
| 20260507063027 | 60 | 136 | 7.0 | 12.2 | 0.00 | 0.00 | 0.00 | 69 | 1017.6 |
| 20260507062032 | 60 | 155 | 7.0 | 13.0 | 0.00 | 0.00 | 0.00 | 70 | 1017.7 |
| 20260507061020 | 59 | 181 | 6.1 | 11.3 | 0.00 | 0.00 | 0.00 | 72 | 1017.6 |
| 20260507060025 | 59 | 146 | 7.8 | 14.8 | 0.00 | 0.00 | 0.00 | 73 | 1017.5 |
| 20260507055030 | 59 | 159 | 7.8 | 13.9 | 0.00 | 0.00 | 0.00 | 74 | 1017.4 |
| 20260507054018 | 58 | 158 | 6.1 | 14.8 | 0.00 | 0.00 | 0.00 | 76 | 1017.3 |
| 20260507053023 | 58 | 156 | 6.1 | 12.2 | 0.00 | 0.00 | 0.00 | 77 | 1017.3 |
| 20260507052028 | 57 | 156 | 6.1 | 12.2 | 0.00 | 0.00 | 0.00 | 80 | 1017.1 |
| 20260507051016 | 55 | 168 | 7.0 | 13.9 | 0.00 | 0.00 | 0.00 | 82 | 1017.2 |
| 20260507050021 | 55 | 161 | 7.8 | 12.2 | 0.00 | 0.00 | 0.00 | 83 | 1017.1 |
| 20260507045026 | 54 | 155 | 6.1 | 12.2 | 0.00 | 0.00 | 0.00 | 86 | 1017.0 |
| 20260507044031 | 52 | 153 | 7.8 | 15.6 | 0.00 | 0.00 | 0.00 | 88 | 1016.9 |
| 20260507043019 | 51 | 149 | 7.0 | 14.8 | 0.00 | 0.00 | 0.00 | 91 | 1016.9 |
| 20260507042024 | 51 | 157 | 7.0 | 13.0 | 0.00 | 0.00 | 0.00 | 92 | 1016.7 |
| 20260507041029 | 50 | 154 | 7.0 | 15.6 | 0.00 | 0.00 | 0.00 | 93 | 1016.7 |
| 20260507040017 | 50 | 158 | 7.0 | 15.6 | 0.00 | 0.00 | 0.00 | 93 | 1016.6 |
| 20260507035022 | 49 | 165 | 7.8 | 15.6 | 0.00 | 0.00 | 0.00 | 93 | 1016.7 |
| 20260507034027 | 49 | 156 | 7.8 | 13.0 | 0.00 | 0.00 | 0.00 | 94 | 1016.5 |
| 20260507033032 | 49 | 159 | 7.0 | 13.0 | 0.00 | 0.00 | 0.00 | 94 | 1016.6 |
| 20260507032020 | 48 | 160 | 7.8 | 13.9 | 0.00 | 0.00 | 0.00 | 94 | 1016.5 |
| 20260507031025 | 48 | 152 | 6.1 | 11.3 | 0.00 | 0.00 | 0.00 | 94 | 1016.4 |
| 20260507030029 | 48 | 154 | 5.2 | 8.7 | 0.00 | 0.00 | 0.00 | 94 | 1016.3 |
| 20260507025017 | 48 | 151 | 5.2 | 9.6 | 0.00 | 0.00 | 0.00 | 94 | 1016.1 |
| 20260507024023 | 48 | 166 | 5.2 | 8.7 | 0.00 | 0.00 | 0.00 | 94 | 1016.3 |
| 20260507023027 | 47 | 159 | 5.2 | 9.6 | 0.00 | 0.00 | 0.00 | 94 | 1016.2 |
| 20260507022032 | 48 | 152 | 4.3 | 8.7 | 0.00 | 0.00 | 0.00 | 94 | 1016.2 |
| 20260507021020 | 48 | 157 | 4.3 | 7.8 | 0.00 | 0.00 | 0.00 | 94 | 1016.2 |
| 20260507020025 | 47 | 154 | 5.2 | 8.7 | 0.00 | 0.00 | 0.00 | 93 | 1016.2 |
| 20260507015110 | 47 | 149 | 4.3 | 7.8 | 0.00 | 0.00 | 0.00 | 93 | 1016.1 |
| 20260506234027 | 48 | 155 | 4.3 | 7.0 | 0.00 | 0.00 | 0.00 | 92 | 1016.3 |
| 20260506233032 | 48 | 155 | 4.3 | 9.6 | 0.00 | 0.00 | 0.00 | 92 | 1016.2 |
| 20260506232020 | 48 | 160 | 5.2 | 8.7 | 0.00 | 0.00 | 0.00 | 91 | 1016.2 |
| 20260506231025 | 48 | 167 | 5.2 | 11.3 | 0.00 | 0.00 | 0.00 | 91 | 1016.2 |
| 20260506230030 | 48 | 154 | 5.2 | 8.7 | 0.00 | 0.00 | 0.00 | 91 | 1016.4 |
| 20260506225018 | 49 | 161 | 5.2 | 9.6 | 0.00 | 0.00 | 0.00 | 91 | 1016.4 |
| 20260506224023 | 49 | 158 | 4.3 | 8.7 | 0.00 | 0.00 | 0.00 | 91 | 1016.5 |
| 20260506223028 | 49 | 160 | 5.2 | 8.7 | 0.00 | 0.00 | 0.00 | 91 | 1016.4 |
| 20260506222016 | 49 | 160 | 5.2 | 12.2 | 0.00 | 0.00 | 0.00 | 91 | 1016.4 |
| 20260506221021 | 49 | 159 | 5.2 | 9.6 | 0.00 | 0.00 | 0.00 | 91 | 1016.5 |
| 20260506220026 | 49 | 155 | 5.2 | 12.2 | 0.00 | 0.00 | 0.00 | 91 | 1016.5 |
| 20260506215031 | 49 | 148 | 5.2 | 9.6 | 0.00 | 0.00 | 0.00 | 90 | 1016.6 |
| 20260506214018 | 49 | 146 | 4.3 | 7.8 | 0.00 | 0.00 | 0.00 | 90 | 1016.6 |
| 20260506213023 | 49 | 159 | 5.2 | 11.3 | 0.00 | 0.00 | 0.00 | 90 | 1016.6 |
| 20260506212028 | 49 | 165 | 4.3 | 9.6 | 0.00 | 0.00 | 0.00 | 90 | 1016.5 |
| 20260506211016 | 49 | 173 | 4.3 | 11.3 | 0.00 | 0.00 | 0.00 | 89 | 1016.4 |
| 20260506210021 | 49 | 172 | 2.6 | 7.0 | 0.00 | 0.00 | 0.00 | 90 | 1016.5 |
| 20260506205026 | 48 | 162 | 4.3 | 8.7 | 0.00 | 0.00 | 0.00 | 90 | 1016.4 |
| 20260506204031 | 48 | 158 | 5.2 | 9.6 | 0.00 | 0.00 | 0.00 | 89 | 1016.5 |
| 20260506203021 | 49 | 158 | 4.3 | 8.7 | 0.00 | 0.00 | 0.00 | 87 | 1016.5 |
| 20260506202024 | 49 | 170 | 3.5 | 6.1 | 0.00 | 0.00 | 0.00 | 86 | 1016.6 |
| 20260506201029 | 49 | 173 | 2.6 | 6.1 | 0.00 | 0.00 | 0.00 | 85 | 1016.4 |
| 20260506200017 | 49 | 174 | 3.5 | 6.1 | 0.00 | 0.00 | 0.00 | 84 | 1016.5 |
| 20260506195022 | 49 | 177 | 3.5 | 6.1 | 0.00 | 0.00 | 0.00 | 83 | 1016.6 |
| 20260506194027 | 50 | 182 | 2.6 | 6.1 | 0.00 | 0.00 | 0.00 | 84 | 1016.4 |
| 20260506193032 | 50 | 180 | 3.5 | 6.1 | 0.00 | 0.00 | 0.00 | 84 | 1016.4 |
| 20260506192020 | 50 | 165 | 3.5 | 7.0 | 0.00 | 0.00 | 0.00 | 83 | 1016.4 |
| 20260506191025 | 50 | 151 | 4.3 | 6.1 | 0.00 | 0.00 | 0.00 | 82 | 1016.2 |
| 20260506190030 | 50 | 144 | 3.5 | 6.1 | 0.00 | 0.00 | 0.00 | 79 | 1016.3 |
| 20260506185138 | 51 | 168 | 2.6 | 5.2 | 0.00 | 0.00 | 0.00 | 78 | 1016.3 |
| 20260506173104 | 56 | 148 | 2.6 | 5.2 | 0.00 | 0.00 | 0.00 | 69 | 1015.7 |
| 20260506165047 | 59 | 157 | 3.5 | 8.7 | 0.00 | 0.00 | 0.00 | 65 | 1015.6 |
| 20260506160018 | 63 | 135 | 4.3 | 7.8 | 0.00 | 0.00 | 0.00 | 53 | 1015.5 |
| 20260506155022 | 64 | 138 | 4.3 | 8.7 | 0.00 | 0.00 | 0.00 | 52 | 1015.6 |
| 20260506154027 | 66 | 141 | 3.5 | 7.0 | 0.00 | 0.00 | 0.00 | 50 | 1015.6 |
| 20260506153033 | 67 | 133 | 5.2 | 8.7 | 0.00 | 0.00 | 0.00 | 49 | 1015.7 |
| 20260506152020 | 67 | 156 | 5.2 | 11.3 | 0.00 | 0.00 | 0.00 | 49 | 1015.7 |
| 20260506151025 | 68 | 155 | 3.5 | 8.7 | 0.00 | 0.00 | 0.00 | 47 | 1015.8 |
| 20260506150030 | 69 | 130 | 2.6 | 6.1 | 0.00 | 0.00 | 0.00 | 45 | 1015.7 |
| 20260506145020 | 70 | 140 | 2.6 | 7.0 | 0.00 | 0.00 | 0.00 | 43 | 1015.6 |
| 20260506144023 | 69 | 135 | 2.6 | 7.8 | 0.00 | 0.00 | 0.00 | 45 | 1015.7 |